| time (UTC) | temp F | wind direction | speed MPH | gust MPH | rain 1hr in | rain 24hr in | rain mn in | humidity % | barometer mb |
| 20260503232907 | 74 | 84 | 2.0 | 4.0 | 0.00 | 0.00 | 0.00 | 53 | 1010.6 |
| 20260503232405 | 78 | 41 | 2.0 | 9.0 | 0.00 | 0.00 | 0.00 | 47 | 1010.4 |
| 20260503231902 | 78 | 48 | 2.0 | 10.0 | 0.00 | 0.00 | 0.00 | 48 | 1010.5 |
| 20260503231359 | 78 | 15 | 7.0 | 7.0 | 0.00 | 0.00 | 0.00 | 48 | 1010.6 |
| 20260503230855 | 76 | 39 | 5.0 | 10.0 | 0.00 | 0.00 | 0.00 | 48 | 1010.8 |
| 20260503230352 | 77 | 16 | 5.0 | 11.0 | 0.00 | 0.00 | 0.00 | 49 | 1010.7 |
| 20260503225850 | 77 | 30 | 2.0 | 11.0 | 0.00 | 0.00 | 0.00 | 48 | 1010.9 |
| 20260503225345 | 77 | 48 | 2.0 | 5.0 | 0.00 | 0.00 | 0.00 | 49 | 1010.8 |
| 20260503224842 | 77 | 45 | 3.0 | 8.0 | 0.00 | 0.00 | 0.00 | 45 | 1011.0 |
| 20260503224339 | 76 | 0 | 11.0 | 12.0 | 0.00 | 0.00 | 0.00 | 45 | 1011.1 |
| 20260503223837 | 76 | 16 | 4.0 | 12.0 | 0.00 | 0.00 | 0.00 | 45 | 1011.2 |
| 20260503223334 | 74 | 67 | 5.0 | 12.0 | 0.00 | 0.00 | 0.00 | 50 | 1011.2 |
| 20260503222830 | 73 | 52 | 2.0 | 10.0 | 0.00 | 0.00 | 0.00 | 54 | 1011.3 |
| 20260503222329 | 71 | 28 | 8.0 | 8.0 | 0.00 | 0.00 | 0.00 | 58 | 1011.3 |
| 20260503221826 | 71 | 16 | 3.0 | 10.0 | 0.00 | 0.00 | 0.00 | 58 | 1011.4 |
| 20260503221325 | 71 | 79 | 2.0 | 7.0 | 0.00 | 0.00 | 0.00 | 59 | 1011.5 |
| 20260503220821 | 71 | 4 | 2.0 | 9.0 | 0.00 | 0.00 | 0.00 | 60 | 1011.6 |
| 20260503220318 | 71 | 45 | 3.0 | 14.0 | 0.00 | 0.00 | 0.00 | 60 | 1011.6 |
| 20260503215814 | 69 | 45 | 0.0 | 10.0 | 0.00 | 0.00 | 0.00 | 62 | 1011.5 |
| 20260503215312 | 71 | 70 | 2.0 | 15.0 | 0.00 | 0.00 | 0.00 | 60 | 1011.6 |
| 20260503214810 | 71 | 322 | 3.0 | 7.0 | 0.00 | 0.00 | 0.00 | 56 | 1011.6 |
| 20260503214306 | 71 | 348 | 5.0 | 12.0 | 0.00 | 0.00 | 0.00 | 55 | 1011.7 |
| 20260503213804 | 70 | 39 | 4.0 | 9.0 | 0.00 | 0.00 | 0.00 | 56 | 1011.9 |
| 20260503213301 | 69 | 83 | 0.0 | 9.0 | 0.00 | 0.00 | 0.00 | 58 | 1011.8 |
| 20260503212758 | 69 | 0 | 6.0 | 10.0 | 0.00 | 0.00 | 0.00 | 59 | 1011.8 |
| 20260503212255 | 71 | 20 | 6.0 | 10.0 | 0.00 | 0.00 | 0.00 | 54 | 1011.9 |
| 20260503211753 | 71 | 55 | 3.0 | 10.0 | 0.00 | 0.00 | 0.00 | 55 | 1011.9 |
| 20260503211249 | 69 | 30 | 6.0 | 6.0 | 0.00 | 0.00 | 0.00 | 60 | 1011.8 |
| 20260503210744 | 71 | 22 | 7.0 | 11.0 | 0.00 | 0.00 | 0.00 | 54 | 1012.0 |
| 20260503210242 | 72 | 12 | 2.0 | 8.0 | 0.00 | 0.00 | 0.00 | 54 | 1012.1 |
| 20260503205742 | 69 | 346 | 5.0 | 9.0 | 0.00 | 0.00 | 0.00 | 58 | 1012.3 |
| 20260503205239 | 70 | 42 | 3.0 | 9.0 | 0.00 | 0.00 | 0.00 | 56 | 1012.2 |
| 20260503204735 | 71 | 30 | 6.0 | 13.0 | 0.00 | 0.00 | 0.00 | 54 | 1012.3 |
| 20260503204233 | 71 | 29 | 6.0 | 14.0 | 0.00 | 0.00 | 0.00 | 56 | 1012.2 |
| 20260503203731 | 70 | 13 | 11.0 | 12.0 | 0.00 | 0.00 | 0.00 | 58 | 1012.3 |
| 20260503203228 | 69 | 13 | 9.0 | 10.0 | 0.00 | 0.00 | 0.00 | 61 | 1012.4 |
| 20260503202725 | 69 | 350 | 5.0 | 12.0 | 0.00 | 0.00 | 0.00 | 63 | 1012.5 |
| 20260503202223 | 69 | 90 | 3.0 | 9.0 | 0.00 | 0.00 | 0.00 | 63 | 1012.7 |
| 20260503201720 | 69 | 23 | 2.0 | 7.0 | 0.00 | 0.00 | 0.00 | 63 | 1012.5 |
| 20260503201218 | 68 | 18 | 3.0 | 9.0 | 0.00 | 0.00 | 0.00 | 62 | 1012.8 |
| 20260503200714 | 69 | 46 | 4.0 | 6.0 | 0.00 | 0.00 | 0.00 | 62 | 1012.8 |
| 20260503200211 | 68 | 357 | 5.0 | 5.0 | 0.00 | 0.00 | 0.00 | 65 | 1012.9 |
| 20260503195707 | 67 | 43 | 4.0 | 12.0 | 0.00 | 0.00 | 0.00 | 65 | 1012.9 |
| 20260503195204 | 68 | 42 | 3.0 | 9.0 | 0.00 | 0.00 | 0.00 | 66 | 1012.9 |
| 20260503194701 | 66 | 14 | 5.0 | 9.0 | 0.00 | 0.00 | 0.00 | 69 | 1013.0 |
| 20260503194156 | 65 | 37 | 3.0 | 7.0 | 0.00 | 0.00 | 0.00 | 71 | 1013.2 |
| 20260503193654 | 65 | 68 | 0.0 | 4.0 | 0.00 | 0.00 | 0.00 | 73 | 1013.0 |
| 20260503193149 | 65 | 66 | 1.0 | 5.0 | 0.00 | 0.00 | 0.00 | 73 | 1013.3 |
| 20260503192645 | 63 | 23 | 2.0 | 8.0 | 0.00 | 0.00 | 0.00 | 75 | 1013.3 |
| 20260503192141 | 62 | 63 | 9.0 | 11.0 | 0.00 | 0.00 | 0.00 | 74 | 1013.3 |
| 20260503191638 | 64 | 42 | 2.0 | 6.0 | 0.00 | 0.00 | 0.00 | 74 | 1013.2 |
| 20260503191135 | 64 | 12 | 3.0 | 6.0 | 0.00 | 0.00 | 0.00 | 74 | 1013.2 |
| 20260503190632 | 64 | 9 | 2.0 | 7.0 | 0.00 | 0.00 | 0.00 | 75 | 1013.5 |
| 20260503190128 | 63 | 317 | 0.0 | 7.0 | 0.00 | 0.00 | 0.00 | 75 | 1013.6 |
| 20260503185625 | 62 | 19 | 4.0 | 11.0 | 0.00 | 0.00 | 0.00 | 76 | 1013.5 |
| 20260503185120 | 62 | 14 | 4.0 | 10.0 | 0.00 | 0.00 | 0.00 | 76 | 1013.6 |
| 20260503184616 | 61 | 36 | 7.0 | 11.0 | 0.00 | 0.00 | 0.00 | 75 | 1013.8 |
| 20260503184113 | 63 | 20 | 3.0 | 12.0 | 0.00 | 0.00 | 0.00 | 74 | 1013.7 |
| 20260503183609 | 63 | 57 | 3.0 | 6.0 | 0.00 | 0.00 | 0.00 | 74 | 1013.8 |
| 20260503183106 | 63 | 26 | 3.0 | 7.0 | 0.00 | 0.00 | 0.00 | 71 | 1013.8 |
| 20260503182605 | 66 | 40 | 3.0 | 8.0 | 0.00 | 0.00 | 0.00 | 65 | 1013.7 |
| 20260503182103 | 69 | 356 | 2.0 | 14.0 | 0.00 | 0.00 | 0.00 | 59 | 1013.7 |
| 20260503181559 | 68 | 8 | 11.0 | 14.0 | 0.00 | 0.00 | 0.00 | 60 | 1013.8 |
| 20260503181055 | 68 | 23 | 10.0 | 11.0 | 0.00 | 0.00 | 0.00 | 61 | 1013.8 |
| 20260503180553 | 68 | 9 | 7.0 | 13.0 | 0.00 | 0.00 | 0.00 | 62 | 1013.9 |
| 20260503180050 | 67 | 27 | 6.0 | 13.0 | 0.00 | 0.00 | 0.00 | 65 | 1013.9 |
| 20260503175547 | 65 | 67 | 3.0 | 12.0 | 0.00 | 0.00 | 0.00 | 70 | 1014.0 |
| 20260503175045 | 64 | 16 | 6.0 | 10.0 | 0.00 | 0.00 | 0.00 | 72 | 1013.9 |
| 20260503174542 | 63 | 70 | 2.0 | 6.0 | 0.00 | 0.00 | 0.00 | 76 | 1014.0 |
| 20260503174038 | 62 | 54 | 1.0 | 8.0 | 0.00 | 0.00 | 0.00 | 77 | 1014.1 |
| 20260503173533 | 61 | 60 | 2.0 | 6.0 | 0.00 | 0.00 | 0.00 | 78 | 1014.1 |
| 20260503173029 | 61 | 2 | 9.0 | 9.0 | 0.00 | 0.00 | 0.00 | 77 | 1014.0 |
| 20260503172527 | 61 | 34 | 4.0 | 6.0 | 0.00 | 0.00 | 0.00 | 77 | 1014.2 |
| 20260503172024 | 61 | 319 | 2.0 | 8.0 | 0.00 | 0.00 | 0.00 | 77 | 1014.0 |
| 20260503171521 | 61 | 20 | 5.0 | 9.0 | 0.00 | 0.00 | 0.00 | 76 | 1014.0 |
| 20260503171018 | 61 | 22 | 4.0 | 14.0 | 0.00 | 0.00 | 0.00 | 77 | 1014.1 |
| 20260503170514 | 62 | 50 | 4.0 | 9.0 | 0.00 | 0.00 | 0.00 | 76 | 1014.1 |
| 20260503150906 | 57 | 49 | 3.0 | 4.0 | 0.00 | 0.00 | 0.00 | 84 | 1014.4 |
| 20260503150403 | 57 | 13 | 4.0 | 4.0 | 0.00 | 0.00 | 0.00 | 84 | 1014.3 |
| 20260503131256 | 56 | 90 | 1.0 | 2.0 | 0.00 | 0.00 | 0.00 | 83 | 1014.2 |
| 20260503130754 | 56 | 105 | 0.0 | 1.0 | 0.00 | 0.00 | 0.00 | 83 | 1014.0 |
| 20260503130251 | 55 | 71 | 1.0 | 2.0 | 0.00 | 0.00 | 0.00 | 83 | 1014.1 |
| 20260503120217 | 54 | 75 | 2.0 | 2.0 | 0.00 | 0.00 | 0.00 | 82 | 1014.0 |
| 20260503110644 | 54 | 90 | 0.0 | 1.0 | 0.00 | 0.00 | 0.00 | 82 | 1014.3 |
| 20260503110142 | 54 | 83 | 1.0 | 1.0 | 0.00 | 0.00 | 0.00 | 82 | 1014.3 |
| 20260503100109 | 55 | 19 | 2.0 | 2.0 | 0.00 | 0.00 | 0.00 | 84 | 1014.2 |
| 20260503081458 | 56 | 41 | 2.0 | 3.0 | 0.00 | 0.00 | 0.00 | 82 | 1014.4 |
| 20260503080955 | 55 | 35 | 0.0 | 2.0 | 0.00 | 0.00 | 0.00 | 82 | 1014.5 |
| 20260503080451 | 55 | 63 | 2.0 | 2.0 | 0.00 | 0.00 | 0.00 | 82 | 1014.3 |
| 20260503072928 | 55 | 74 | 0.0 | 1.0 | 0.00 | 0.00 | 0.00 | 81 | 1014.2 |
| 20260503072425 | 55 | 66 | 0.0 | 0.0 | 0.00 | 0.00 | 0.00 | 81 | 1014.4 |
| 20260503071922 | 55 | 69 | 0.0 | 1.0 | 0.00 | 0.00 | 0.00 | 81 | 1014.4 |
| 20260503071419 | 55 | 63 | 0.0 | 0.0 | 0.00 | 0.00 | 0.00 | 81 | 1014.4 |
| 20260503070915 | 55 | 74 | 0.0 | 0.0 | 0.00 | 0.00 | 0.00 | 80 | 1014.4 |
| 20260503070412 | 56 | 66 | 0.0 | 2.0 | 0.00 | 0.00 | 0.00 | 80 | 1014.4 |
| 20260503060338 | 60 | 23 | 0.0 | 2.0 | 0.00 | 0.01 | 0.01 | 68 | 1014.2 |
| 20260503054826 | 64 | 84 | 1.0 | 2.0 | 0.00 | 0.01 | 0.01 | 59 | 1014.0 |
| 20260503054322 | 64 | 60 | 0.0 | 2.0 | 0.00 | 0.01 | 0.01 | 60 | 1014.1 |
| 20260503053819 | 64 | 35 | 0.0 | 0.0 | 0.00 | 0.01 | 0.01 | 59 | 1014.0 |
| 20260503053318 | 64 | 90 | 0.0 | 2.0 | 0.00 | 0.01 | 0.01 | 58 | 1014.1 |
| 20260503052814 | 64 | 74 | 0.0 | 2.0 | 0.00 | 0.01 | 0.01 | 59 | 1014.1 |
| 20260503052311 | 64 | 60 | 0.0 | 2.0 | 0.00 | 0.01 | 0.01 | 59 | 1014.1 |
| 20260503051807 | 64 | 180 | 0.0 | 1.0 | 0.00 | 0.01 | 0.01 | 59 | 1014.2 |
| 20260503051303 | 64 | 194 | 0.0 | 2.0 | 0.00 | 0.01 | 0.01 | 58 | 1013.9 |
| 20260503050800 | 64 | 66 | 0.0 | 2.0 | 0.00 | 0.01 | 0.01 | 58 | 1014.0 |
| 20260503050256 | 65 | 74 | 0.0 | 0.0 | 0.00 | 0.01 | 0.01 | 57 | 1014.0 |
| 20260503045754 | 65 | 66 | 0.0 | 2.0 | 0.00 | 0.01 | 0.01 | 57 | 1014.1 |
| 20260503045252 | 65 | 74 | 0.0 | 2.0 | 0.00 | 0.01 | 0.01 | 57 | 1014.1 |
| 20260503044748 | 65 | 54 | 0.0 | 2.0 | 0.00 | 0.01 | 0.01 | 57 | 1014.0 |
| 20260503044245 | 65 | 174 | 1.0 | 1.0 | 0.00 | 0.01 | 0.01 | 56 | 1014.1 |
| 20260503043742 | 66 | 7 | 0.0 | 2.0 | 0.00 | 0.01 | 0.01 | 56 | 1014.0 |
| 20260503043239 | 66 | 279 | 0.0 | 2.0 | 0.00 | 0.01 | 0.01 | 56 | 1013.8 |
| 20260503042735 | 66 | 0 | 0.0 | 3.0 | 0.00 | 0.01 | 0.01 | 55 | 1013.8 |
| 20260503042232 | 66 | 0 | 0.0 | 2.0 | 0.00 | 0.01 | 0.01 | 57 | 1013.8 |
| 20260503041728 | 66 | 60 | 0.0 | 2.0 | 0.00 | 0.01 | 0.01 | 56 | 1013.7 |
| 20260503041226 | 67 | 81 | 0.0 | 3.0 | 0.00 | 0.01 | 0.01 | 54 | 1013.6 |
| 20260503040724 | 67 | 258 | 2.0 | 2.0 | 0.00 | 0.01 | 0.01 | 55 | 1013.6 |
| 20260503040221 | 67 | 84 | 1.0 | 2.0 | 0.00 | 0.01 | 0.01 | 54 | 1013.6 |
| 20260503035717 | 68 | 66 | 0.0 | 2.0 | 0.00 | 0.01 | 0.01 | 52 | 1013.6 |
| 20260503035215 | 67 | 20 | 0.0 | 2.0 | 0.00 | 0.01 | 0.01 | 54 | 1013.4 |
| 20260503034712 | 67 | 26 | 3.0 | 3.0 | 0.00 | 0.01 | 0.01 | 55 | 1013.4 |
| 20260503034209 | 67 | 16 | 0.0 | 4.0 | 0.00 | 0.01 | 0.01 | 55 | 1013.3 |
| 20260503033706 | 67 | 18 | 0.0 | 2.0 | 0.00 | 0.01 | 0.01 | 55 | 1013.2 |
| 20260503033204 | 67 | 81 | 0.0 | 1.0 | 0.00 | 0.01 | 0.01 | 55 | 1013.3 |
| 20260503032702 | 68 | 35 | 1.0 | 1.0 | 0.00 | 0.01 | 0.01 | 55 | 1013.1 |
| 20260503032200 | 68 | 21 | 0.0 | 3.0 | 0.00 | 0.01 | 0.01 | 53 | 1013.3 |
| 20260503031657 | 69 | 53 | 2.0 | 4.0 | 0.00 | 0.01 | 0.01 | 52 | 1013.0 |
| 20260503031155 | 70 | 54 | 1.0 | 4.0 | 0.00 | 0.01 | 0.01 | 52 | 1013.0 |
| 20260503030651 | 70 | 29 | 0.0 | 4.0 | 0.00 | 0.01 | 0.01 | 52 | 1012.8 |
| 20260503030147 | 71 | 60 | 0.0 | 3.0 | 0.00 | 0.01 | 0.01 | 52 | 1012.9 |
| 20260503025644 | 71 | 15 | 0.0 | 4.0 | 0.00 | 0.01 | 0.01 | 51 | 1012.9 |
| 20260503025143 | 71 | 346 | 2.0 | 3.0 | 0.00 | 0.01 | 0.01 | 51 | 1012.8 |
| 20260503024638 | 72 | 352 | 5.0 | 5.0 | 0.00 | 0.01 | 0.01 | 52 | 1012.7 |
| 20260503024136 | 72 | 103 | 2.0 | 4.0 | 0.00 | 0.01 | 0.01 | 50 | 1012.7 |
| 20260503023633 | 72 | 11 | 4.0 | 7.0 | 0.00 | 0.01 | 0.01 | 50 | 1012.9 |
| 20260503023130 | 72 | 78 | 0.0 | 7.0 | 0.00 | 0.01 | 0.01 | 50 | 1013.0 |
| 20260503022626 | 73 | 38 | 2.0 | 7.0 | 0.00 | 0.01 | 0.01 | 50 | 1012.8 |
| 20260503022120 | 74 | 12 | 1.0 | 3.0 | 0.00 | 0.01 | 0.01 | 49 | 1013.0 |
| 20260503021618 | 73 | 45 | 4.0 | 11.0 | 0.00 | 0.01 | 0.01 | 51 | 1012.9 |
| 20260503021114 | 74 | 341 | 2.0 | 6.0 | 0.00 | 0.01 | 0.01 | 49 | 1012.7 |
| 20260503020611 | 74 | 23 | 2.0 | 4.0 | 0.00 | 0.01 | 0.01 | 50 | 1012.9 |
| 20260503020109 | 73 | 94 | 5.0 | 11.0 | 0.00 | 0.01 | 0.01 | 49 | 1013.1 |
| 20260503015605 | 74 | 32 | 5.0 | 5.0 | 0.00 | 0.01 | 0.01 | 49 | 1013.0 |
| 20260503015102 | 74 | 14 | 6.0 | 6.0 | 0.00 | 0.01 | 0.01 | 48 | 1012.7 |
| 20260503014558 | 73 | 356 | 6.0 | 15.0 | 0.00 | 0.01 | 0.01 | 48 | 1012.9 |
| 20260503014056 | 74 | 10 | 3.0 | 11.0 | 0.00 | 0.01 | 0.01 | 48 | 1013.0 |
| 20260503013553 | 75 | 52 | 4.0 | 7.0 | 0.00 | 0.01 | 0.01 | 47 | 1012.9 |
| 20260503013050 | 75 | 12 | 2.0 | 7.0 | 0.00 | 0.01 | 0.01 | 48 | 1012.9 |
| 20260503012548 | 75 | 33 | 5.0 | 5.0 | 0.00 | 0.01 | 0.01 | 47 | 1013.0 |
| 20260503012044 | 74 | 270 | 0.0 | 9.0 | 0.00 | 0.01 | 0.01 | 48 | 1013.2 |
| 20260503011541 | 74 | 28 | 4.0 | 12.0 | 0.00 | 0.01 | 0.01 | 47 | 1012.7 |
| 20260503011038 | 75 | 20 | 3.0 | 8.0 | 0.00 | 0.01 | 0.01 | 47 | 1012.8 |
| 20260503010534 | 74 | 2 | 4.0 | 4.0 | 0.00 | 0.01 | 0.01 | 48 | 1012.9 |
| 20260503010032 | 75 | 97 | 3.0 | 7.0 | 0.00 | 0.01 | 0.01 | 48 | 1013.0 |
| 20260503005529 | 74 | 30 | 7.0 | 12.0 | 0.00 | 0.01 | 0.01 | 48 | 1012.8 |
| 20260503005026 | 75 | 23 | 2.0 | 8.0 | 0.00 | 0.01 | 0.01 | 49 | 1013.0 |
| 20260503004522 | 74 | 34 | 0.0 | 13.0 | 0.00 | 0.01 | 0.01 | 50 | 1012.9 |
| 20260503004021 | 74 | 6 | 4.0 | 14.0 | 0.00 | 0.01 | 0.01 | 50 | 1013.0 |
| 20260503003517 | 74 | 16 | 5.0 | 7.0 | 0.00 | 0.01 | 0.01 | 50 | 1013.0 |
| 20260503003014 | 73 | 18 | 9.0 | 13.0 | 0.00 | 0.01 | 0.01 | 50 | 1013.0 |
| 20260503002511 | 74 | 90 | 1.0 | 9.0 | 0.00 | 0.01 | 0.01 | 50 | 1013.2 |
| 20260503002008 | 75 | 46 | 4.0 | 5.0 | 0.00 | 0.01 | 0.01 | 50 | 1013.2 |
| 20260503001504 | 74 | 15 | 3.0 | 11.0 | 0.00 | 0.01 | 0.01 | 49 | 1013.1 |
| 20260503001002 | 74 | 355 | 1.0 | 11.0 | 0.00 | 0.01 | 0.01 | 50 | 1013.4 |
| 20260503000459 | 74 | 16 | 3.0 | 6.0 | 0.00 | 0.01 | 0.01 | 50 | 1013.6 |
| 20260502235956 | 74 | 38 | 3.0 | 15.0 | 0.00 | 0.01 | 0.01 | 51 | 1013.3 |
| 20260502235452 | 74 | 28 | 7.0 | 13.0 | 0.00 | 0.01 | 0.01 | 50 | 1013.3 |
| 20260502234950 | 74 | 78 | 2.0 | 6.0 | 0.00 | 0.01 | 0.01 | 51 | 1013.5 |
| 20260502234446 | 73 | 3 | 8.0 | 9.0 | 0.00 | 0.01 | 0.01 | 52 | 1013.7 |
| 20260502233944 | 73 | 54 | 1.0 | 10.0 | 0.00 | 0.01 | 0.01 | 52 | 1013.6 |
| 20260502233439 | 73 | 41 | 4.0 | 10.0 | 0.00 | 0.01 | 0.01 | 52 | 1013.7 |